Temperature
15 15 15 15 15 15 15 15 15 15 15 15 15 15 15 15 15 15 15 15 15 15 15 15 15 14 15 15 15 15 15 15 15 15 15 15 15 15 15 15 15 15 15
15 15 15 15 15 15 14 14 15 15 15 14 14 14 14 14 14 14 14 14 14 14 14 14 14 14 14 14 14 14 14 15 15 15 15 15 15 15 15 15 15 15 15
15 15 15 15 15 14 14 14 14 14 14 14 14 14 14 14 14 14 14 14 14 14 14 14 14 14 14 14 14 14 14 14 14 14 15 15 15 15 15 15 15 15 15
15 15 15 15 15 14 14 14 14 14 14 14 14 14 14 14 14 14 14 14 14 14 14 14 14 14 14 14 14 14 14 14 14 14 14 14 14 14 14 14 15 14 15
15 15 15 15 14 14 14 14 14 14 14 14 14 14 14 14 14 14 14 14 14 14 13 14 14 14 14 14 14 14 14 14 14 14 14 14 14 14 14 14 14 14 14
15 15 15 14 14 14 14 14 14 14 14 14 14 14 14 14 14 14 14 14 13 13 13 13 13 13 14 14 14 14 14 14 14 14 14 14 14 14 14 14 14 14 14
15 15 14 14 14 14 14 14 14 14 14 14 14 14 14 14 14 14 13 13 13 13 13 13 13 13 13 13 13 14 13 13 13 13 13 13 14 14 14 14 14 14 14
15 14 14 14 14 14 14 14 14 14 14 14 14 14 14 14 13 13 13 13 13 13 13 13 13 13 13 13 13 13 13 13 13 13 13 13 13 13 14 14 14 14 13
15 15 14 14 14 14 14 14 14 14 14 14 14 14 15 15 14 13 13 13 13 13 13 13 12 12 12 12 13 13 13 13 13 13 13 13 13 13 13 13 13 13 13
14 14 14 14 14 14 14 14 14 14 14 14 14 14 14 14 14 14 13 13 13 13 13 13 12 12 12 12 13 13 13 13 13 13 13 13 13 13 13 13 13 13 13
14 14 14 14 14 14 14 14 14 14 14 14 14 13 13 14 14 14 14 13 13 13 12 12 12 12 12 12 13 13 13 13 13 13 13 13 13 13 13 13 13 13 13
14 14 14 14 14 14 14 14 14 14 14 14 14 14 13 14 14 14 14 13 13 13 12 12 12 12 12 12 13 13 13 13 13 13 13 13 13 13 13 13 12 12 12
14 14 14 14 14 14 14 14 14 14 14 14 13 13 13 13 13 14 14 14 13 13 12 12 12 12 12 12 13 13 13 13 13 13 13 13 13 13 13 12 12 12 12
14 14 14 14 14 14 14 14 14 14 14 13 13 13 13 13 13 13 13 13 13 13 13 13 12 12 12 12 12 13 13 13 13 13 13 13 13 13 12 12 12 12 12
14 14 13 13 13 13 13 13 13 13 13 13 13 13 13 13 13 13 13 13 13 14 13 13 12 12 12 12 12 12 12 13 13 13 13 13 12 12 12 12 12 12 12
13 13 13 13 13 13 13 13 13 13 13 13 13 13 13 13 13 13 13 13 13 13 13 13 12 12 12 12 12 12 12 12 12 12 12 12 12 12 12 12 12 12 12
13 13 13 13 13 13 13 13 13 13 13 13 13 13 13 13 13 13 13 13 13 13 13 12 12 12 12 12 12 12 12 12 12 12 12 12 12 12 12 12 12 11 11
13 13 13 13 13 13 13 13 13 13 13 13 13 13 13 13 13 13 13 13 13 12 13 12 12 12 12 11 12 12 12 12 11 12 12 12 12 11 11 11 11 11 11
13 13 13 13 13 13 13 13 12 12 12 13 13 13 12 12 12 12 12 12 12 12 12 12 12 12 12 12 12 12 11 11 11 11 11 11 11 11 11 11 11 11 11
13 13 13 13 13 13 13 12 12 12 12 12 12 12 12 12 12 12 12 12 12 12 12 12 12 12 11 11 11 11 11 11 11 11 11 11 11 11 11 11 11 11 11
13 12 12 12 12 12 12 12 12 12 12 12 12 12 12 12 12 12 12 12 12 12 12 11 11 11 11 11 11 11 11 11 11 11 11 10 10 10 10 11 11 11 10
12 12 12 12 12 12 12 12 12 12 12 12 12 12 12 12 12 12 12 12 12 12 11 11 11 11 11 11 11 11 11 11 10 11 10 10 10 10 10 10 10 10 10
12 12 12 12 12 12 12 12 12 11 11 11 11 11 11 12 12 11 11 12 12 12 12 11 11 11 11 11 11 10 10 10 10 10 10 10 10 10 10 10 10 10 10
12 12 12 12 12 12 12 11 11 11 11 11 11 11 11 11 11 11 11 11 11 11 11 11 11 11 11 11 11 10 10 10 10 10 10 10 10 10 10 10 10 10 10
11 11 11 11 11 11 11 11 11 11 11 11 11 11 11 11 11 11 11 11 11 11 11 11 11 11 11 11 11 10 10 10 10 10 10 9 9 9 9 9 9 9 9
11 11 11 11 11 10 11 11 10 10 10 10 10 10 11 11 11 11 10 10 10 10 10 10 10 10 10 10 10 10 10 9 9 9 9 9 9 9 9 9 9 9 9
Wind_Speed
5 5 6 5 6 6 6 6 6 8 8 8 8 8 8 8 8 8 10 12 12 11 11 10 10 10 9 9 9 8 8 8 8 8 8 8 8 8 8 8 8 8 8
5 5 5 5 5 5 6 6 7 6 6 7 7 8 7 7 8 8 8 10 12 12 10 10 9 9 9 8 8 8 8 8 7 8 8 7 7 8 8 7 7 8 8
5 5 5 5 5 6 6 6 6 6 6 6 7 7 7 7 7 7 7 7 8 11 11 9 9 8 8 8 7 7 8 8 8 8 7 7 7 7 7 7 7 7 8
5 4 4 4 5 5 5 4 4 5 5 5 5 5 5 5 6 6 6 6 6 7 9 10 10 9 8 8 8 7 7 7 7 7 7 7 7 7 6 7 7 7 7
4 4 3 4 5 4 4 4 3 4 4 5 5 4 4 4 5 5 6 6 6 5 6 8 8 9 8 8 8 7 7 6 6 7 7 6 6 6 6 6 7 6 6
3 4 3 4 4 3 3 3 4 3 3 4 4 4 4 4 4 4 4 5 5 5 5 5 5 6 8 8 8 7 6 6 6 7 6 6 6 6 6 6 6 6 6
3 3 3 3 3 3 3 3 3 4 3 3 3 3 4 4 4 3 3 3 4 5 4 4 4 4 4 6 7 7 7 6 6 6 6 6 5 5 6 6 5 6 6
2 2 3 3 3 3 3 3 3 2 2 1 1 1 2 2 3 3 3 2 3 3 4 4 3 3 4 4 7 7 7 6 6 6 5 5 5 5 5 5 5 5 5
2 2 2 3 3 3 3 3 3 3 2 2 1 1 1 1 1 2 2 2 3 2 3 3 3 4 4 4 4 6 6 6 5 5 4 4 4 4 4 5 5 5 5
2 1 2 2 3 2 3 3 3 2 2 2 1 1 2 1 1 1 2 2 2 2 2 2 3 3 4 4 5 6 6 6 6 5 4 3 3 3 3 4 5 5 5
1 1 1 1 2 2 3 3 3 2 2 2 1 1 1 1 2 1 1 1 1 2 2 2 2 3 4 4 4 7 6 6 6 5 4 4 4 3 3 4 6 6 5
1 1 1 1 2 2 2 2 3 3 3 3 2 2 2 2 2 1 1 1 1 1 2 2 2 3 3 4 5 6 5 5 4 4 4 4 4 4 5 5 5 5 5
1 1 2 2 2 2 2 3 3 3 4 4 3 2 2 2 2 2 2 1 1 1 1 1 2 2 2 3 4 4 4 3 3 4 4 4 3 3 4 4 4 4 4
2 2 2 2 2 2 2 3 3 3 3 4 4 3 3 2 2 2 2 2 2 2 2 1 1 1 2 2 3 1 3 3 3 3 3 3 3 3 3 3 3 3 3
2 3 3 3 2 2 2 2 2 3 3 3 3 4 3 2 2 2 2 2 2 2 2 1 1 1 1 2 1 1 2 4 3 3 3 3 3 3 3 3 3 3 3
3 3 3 3 3 2 3 3 3 3 3 3 3 3 3 2 2 2 2 2 3 2 2 1 1 1 1 1 1 1 2 5 3 3 2 2 3 3 4 4 3 3 3
4 4 4 4 3 3 3 3 3 3 3 3 4 4 4 3 2 2 2 2 2 2 2 2 2 2 2 2 1 1 1 1 3 4 3 3 3 4 4 4 4 4 4
4 4 4 4 3 3 3 4 4 4 3 3 3 3 3 3 3 3 3 3 3 3 3 3 2 2 2 2 1 1 1 1 1 4 4 3 3 4 4 4 4 4 3
4 4 4 4 3 3 3 3 4 3 3 3 3 3 3 3 4 3 3 3 3 3 3 3 3 2 2 2 2 2 2 2 1 3 4 4 4 3 3 3 3 2 2
4 4 4 4 3 3 3 3 4 4 3 3 3 4 3 4 4 3 3 4 3 4 4 3 3 3 3 3 3 3 2 2 2 2 2 3 4 5 4 3 3 2 2
4 4 3 3 3 2 2 3 3 4 3 3 3 3 3 1 2 2 2 3 4 4 4 4 4 3 3 3 4 3 3 3 3 2 3 3 4 3 4 5 5 5 4
3 3 3 3 3 2 1 1 3 3 3 3 3 3 3 2 2 2 1 1 2 4 4 4 4 4 4 4 3 4 4 4 3 3 3 3 3 3 3 3 5 6 6
3 3 3 3 3 2 3 2 3 3 3 3 3 3 2 2 3 3 4 5 3 2 3 5 5 4 4 4 4 5 4 4 4 2 3 3 3 4 4 3 6 7 7
3 3 3 4 3 2 3 2 3 4 4 4 4 4 3 3 3 3 4 4 4 3 3 4 4 4 4 3 4 4 4 4 3 2 3 3 3 4 3 4 7 8 8
3 3 3 3 3 2 3 2 3 3 3 4 4 4 3 4 2 3 4 5 4 3 2 1 1 1 2 2 3 3 4 4 4 4 3 3 3 4 4 4 5 8 8
3 3 3 3 3 3 3 3 4 3 3 3 3 3 2 3 3 4 5 5 5 4 4 4 4 3 4 3 4 5 5 5 4 4 3 4 4 3 3 3 3 4 6
Wind_Direction
96 96 91 85 85 88 92 86 84 82 79 75 74 72 72 72 72 74 71 65 65 70 74 75 75 75 74 72 71 73 75 75 75 77 78 80 81 84 84 80 82 84 87
94 96 96 95 90 87 86 89 88 85 81 78 76 75 71 71 72 74 75 72 65 62 65 72 71 72 71 70 72 73 75 77 77 76 75 79 83 81 82 83 81 84 86
96 99 97 98 99 99 98 92 90 88 86 83 78 73 71 68 69 69 69 70 73 69 62 65 64 66 66 67 69 74 74 73 75 77 77 79 83 84 82 80 82 85 87
96 98 96 99 104 105 102 99 98 95 90 85 80 74 72 71 69 69 72 71 66 66 69 61 57 58 60 63 65 71 75 77 77 81 82 82 83 83 83 80 84 90 94
103 110 106 111 110 109 108 109 100 96 95 90 85 78 70 69 68 66 68 68 67 64 66 76 66 57 56 57 61 70 77 79 87 92 91 88 87 87 89 90 91 92 96
114 120 133 129 123 121 119 122 115 105 99 99 95 83 74 74 71 58 58 62 56 57 55 59 72 74 63 55 57 64 72 75 84 90 90 88 87 91 96 98 97 94 94
123 133 145 143 142 136 139 141 130 123 120 127 125 106 93 74 69 67 60 59 61 53 53 56 55 59 76 74 59 56 61 69 76 83 84 83 85 91 98 101 103 100 96
137 157 169 159 157 151 161 158 152 148 149 200 217 170 150 132 81 68 69 60 62 62 49 50 57 61 59 71 72 60 52 57 68 77 79 88 98 103 106 104 104 104 101
142 168 173 184 178 179 178 185 186 192 178 181 304 307 299 118 126 95 69 74 65 53 50 49 55 58 64 67 72 72 57 50 55 61 64 79 101 111 114 117 113 106 100
142 138 159 191 191 188 189 199 205 209 204 189 183 303 326 12 231 150 140 94 67 52 47 61 61 61 64 67 68 64 58 45 40 48 51 66 86 102 122 136 131 119 108
145 143 168 191 202 204 208 206 209 221 219 225 221 204 191 230 261 250 173 151 121 88 65 66 78 71 67 70 72 68 57 44 38 37 46 64 66 71 106 120 129 121 114
169 170 202 203 218 224 222 215 216 217 231 238 244 236 233 241 246 243 224 186 155 113 92 71 77 76 72 76 81 77 62 47 37 32 38 54 58 64 86 100 107 107 110
193 212 224 217 216 231 235 231 231 232 227 227 233 244 251 258 262 257 243 213 184 158 131 127 94 94 86 85 96 98 90 67 49 40 42 46 57 58 76 93 98 98 102
203 214 228 232 231 231 239 234 246 243 242 234 232 231 236 243 243 248 238 218 208 192 185 150 122 98 91 91 85 144 100 94 72 55 48 46 60 63 71 88 94 97 96
212 219 225 224 226 228 241 244 250 249 249 247 242 234 232 222 225 228 233 237 244 236 203 165 166 144 116 96 103 159 106 99 97 76 61 54 65 76 83 83 94 100 98
218 221 227 225 225 226 236 246 253 258 246 235 244 241 230 221 215 212 219 235 255 258 225 172 175 163 135 139 100 87 90 111 117 106 85 73 72 83 85 86 92 94 97
220 224 229 231 228 232 238 237 247 246 246 234 221 224 219 214 209 206 211 220 230 225 205 193 174 176 179 180 152 164 140 161 120 122 121 109 100 98 100 98 98 98 97
223 228 229 228 224 230 241 244 245 246 247 248 238 228 221 202 214 218 214 215 219 223 215 207 194 193 203 198 199 204 194 180 122 119 137 133 128 120 113 107 104 98 94
218 221 224 230 225 228 232 239 246 248 248 248 245 240 233 222 219 216 217 219 218 212 214 214 209 197 210 205 206 213 211 202 181 145 155 162 158 151 144 136 127 117 110
216 220 223 227 231 231 232 235 243 247 248 250 248 244 242 238 238 231 222 221 216 207 204 209 207 208 213 218 219 217 222 209 218 201 176 174 173 182 182 178 180 182 169
216 219 218 222 225 227 233 237 239 247 247 244 246 244 246 271 339 281 251 228 211 208 205 209 212 218 220 216 226 230 235 237 222 226 226 211 199 205 196 197 202 202 195
212 215 217 218 219 217 124 263 258 237 243 241 243 239 223 208 195 193 228 270 251 226 217 211 219 225 230 232 232 232 234 235 240 219 235 239 224 230 221 212 174 184 197
212 219 215 219 224 204 149 187 242 243 244 245 245 240 228 218 211 208 191 192 209 246 256 243 235 238 239 234 231 234 236 242 247 239 237 247 234 242 228 199 169 186 199
215 218 223 223 221 199 156 194 236 235 239 241 243 245 235 221 208 223 215 211 214 216 226 233 244 254 259 254 248 245 247 247 249 236 232 253 248 251 240 213 179 193 206
218 223 226 231 226 203 148 171 233 240 239 240 241 243 244 236 185 240 227 220 216 216 192 181 328 309 343 319 262 240 233 230 239 236 230 243 254 257 250 234 198 191 203
217 221 222 229 230 227 157 169 232 236 239 239 240 236 237 249 200 220 229 226 226 229 228 215 216 220 226 224 224 233 237 239 244 250 231 230 241 252 253 236 220 209 206
Height
1537 1536 1536 1535 1536 1536 1536 1536 1536 1536 1536 1536 1536 1536 1536 1536 1536 1536 1535 1535 1534 1534 1534 1533 1533 1532 1532 1532 1532 1532 1532 1532 1532 1533 1533 1534 1534 1535 1535 1535 1536 1536 1536
1538 1538 1538 1537 1538 1538 1538 1538 1538 1537 1537 1538 1538 1537 1537 1537 1537 1537 1537 1536 1536 1535 1535 1534 1534 1534 1534 1533 1533 1532 1532 1533 1533 1533 1534 1534 1535 1535 1536 1536 1536 1536 1537
1539 1540 1540 1539 1539 1539 1539 1539 1539 1539 1539 1539 1539 1539 1539 1539 1539 1539 1539 1538 1538 1537 1536 1536 1535 1535 1535 1534 1534 1533 1533 1533 1533 1533 1534 1534 1535 1535 1536 1536 1537 1537 1537
1541 1541 1541 1541 1541 1541 1541 1541 1541 1541 1541 1541 1541 1541 1541 1540 1540 1540 1540 1540 1539 1538 1538 1537 1536 1536 1535 1535 1534 1534 1534 1533 1533 1534 1534 1535 1535 1536 1536 1536 1537 1537 1538
1542 1542 1541 1542 1542 1542 1542 1542 1542 1542 1542 1542 1542 1542 1542 1542 1541 1542 1541 1541 1540 1540 1539 1538 1537 1536 1536 1535 1535 1534 1534 1534 1534 1534 1534 1535 1535 1536 1536 1537 1537 1537 1538
1542 1542 1542 1543 1543 1543 1543 1543 1543 1543 1543 1543 1543 1543 1543 1543 1542 1542 1542 1541 1541 1541 1540 1539 1538 1537 1536 1536 1535 1535 1535 1535 1535 1535 1535 1535 1535 1536 1536 1537 1537 1537 1538
1542 1543 1543 1543 1543 1543 1543 1544 1543 1544 1544 1544 1544 1544 1544 1543 1543 1542 1542 1542 1541 1541 1540 1540 1539 1538 1537 1536 1536 1536 1535 1535 1535 1535 1535 1535 1535 1536 1536 1536 1537 1537 1538
1543 1543 1543 1543 1543 1543 1543 1544 1544 1544 1544 1544 1545 1545 1545 1545 1543 1543 1542 1542 1542 1541 1541 1540 1540 1539 1538 1537 1537 1536 1536 1535 1536 1536 1535 1536 1536 1536 1536 1536 1536 1537 1538
1543 1543 1543 1544 1543 1544 1544 1544 1544 1544 1544 1544 1544 1545 1544 1544 1544 1544 1543 1543 1542 1542 1541 1540 1540 1540 1539 1538 1537 1537 1536 1536 1536 1535 1536 1535 1535 1535 1535 1535 1536 1537 1537
1542 1542 1543 1543 1544 1543 1543 1544 1544 1544 1544 1544 1544 1543 1544 1544 1544 1544 1544 1543 1542 1542 1541 1541 1540 1540 1539 1538 1538 1537 1536 1536 1536 1536 1535 1535 1535 1533 1532 1532 1534 1536 1537
1541 1542 1542 1542 1543 1543 1543 1543 1543 1543 1543 1543 1543 1543 1543 1543 1543 1543 1543 1543 1542 1542 1541 1541 1541 1540 1539 1539 1538 1537 1537 1536 1536 1536 1536 1535 1534 1532 1530 1530 1532 1535 1537
1540 1541 1541 1541 1542 1542 1542 1542 1542 1542 1542 1542 1542 1542 1542 1543 1543 1543 1542 1542 1542 1542 1541 1541 1540 1540 1539 1539 1538 1538 1537 1537 1536 1536 1536 1535 1535 1533 1531 1531 1533 1535 1537
1540 1540 1540 1540 1540 1541 1541 1541 1541 1541 1541 1541 1541 1541 1541 1541 1541 1542 1542 1541 1541 1542 1541 1541 1540 1540 1539 1539 1538 1538 1538 1537 1537 1536 1536 1536 1536 1535 1534 1534 1535 1536 1536
1538 1538 1538 1539 1539 1539 1539 1539 1540 1540 1540 1540 1540 1540 1540 1540 1540 1540 1541 1541 1540 1541 1541 1541 1540 1540 1540 1539 1539 1538 1538 1537 1537 1537 1536 1536 1536 1536 1535 1535 1536 1536 1536
1536 1537 1537 1537 1538 1537 1538 1538 1538 1538 1538 1538 1538 1538 1538 1538 1538 1538 1539 1539 1540 1539 1540 1540 1540 1539 1539 1539 1538 1538 1538 1537 1537 1536 1536 1535 1535 1535 1535 1535 1535 1535 1535
1534 1535 1535 1536 1536 1536 1536 1536 1536 1536 1536 1536 1536 1536 1536 1536 1536 1536 1537 1537 1538 1538 1538 1538 1538 1538 1538 1538 1538 1538 1537 1537 1536 1536 1535 1534 1534 1534 1534 1534 1534 1534 1534
1532 1533 1533 1533 1534 1534 1534 1534 1534 1534 1534 1535 1534 1535 1535 1535 1535 1535 1535 1535 1536 1537 1537 1537 1537 1537 1537 1537 1537 1537 1536 1536 1535 1535 1534 1534 1533 1533 1533 1533 1533 1533 1533
1529 1530 1530 1531 1531 1531 1532 1532 1532 1532 1532 1532 1533 1533 1533 1533 1533 1533 1533 1534 1534 1534 1535 1535 1535 1535 1536 1536 1536 1535 1535 1535 1534 1533 1533 1532 1532 1532 1532 1532 1532 1532 1531
1527 1527 1528 1528 1529 1529 1529 1530 1530 1530 1530 1530 1530 1531 1531 1531 1531 1531 1531 1532 1532 1532 1533 1533 1533 1533 1534 1534 1534 1534 1534 1533 1533 1532 1531 1531 1531 1531 1530 1530 1530 1530 1530
1524 1525 1525 1526 1526 1526 1527 1527 1528 1528 1528 1528 1528 1528 1528 1529 1529 1529 1529 1529 1530 1530 1530 1531 1531 1532 1532 1532 1532 1532 1532 1532 1531 1531 1530 1530 1529 1529 1529 1528 1528 1528 1528
1522 1522 1523 1523 1524 1524 1524 1525 1525 1525 1525 1525 1525 1525 1525 1525 1526 1526 1527 1527 1527 1528 1528 1528 1529 1529 1530 1529 1530 1530 1530 1530 1529 1529 1529 1528 1528 1527 1527 1526 1526 1526 1526
1519 1519 1520 1521 1521 1521 1521 1522 1522 1522 1523 1523 1523 1523 1523 1523 1523 1523 1524 1524 1525 1525 1526 1526 1527 1527 1527 1527 1527 1527 1527 1528 1528 1527 1526 1526 1526 1525 1525 1524 1524 1524 1524
1516 1517 1517 1518 1518 1519 1519 1519 1519 1519 1520 1520 1520 1520 1520 1520 1520 1521 1521 1521 1522 1522 1523 1524 1524 1524 1525 1525 1525 1525 1524 1525 1525 1524 1524 1524 1524 1523 1523 1522 1521 1521 1521
1513 1513 1514 1515 1515 1515 1516 1516 1516 1516 1517 1517 1517 1517 1517 1517 1517 1518 1518 1519 1519 1519 1520 1520 1521 1521 1521 1521 1521 1521 1521 1521 1521 1521 1521 1521 1521 1521 1521 1520 1519 1519 1519
1510 1511 1511 1512 1512 1512 1513 1513 1513 1514 1514 1514 1514 1514 1514 1514 1514 1515 1515 1516 1516 1516 1516 1516 1517 1517 1518 1518 1518 1518 1518 1518 1518 1518 1518 1518 1517 1517 1517 1517 1516 1516 1516
1507 1508 1508 1509 1509 1509 1510 1510 1510 1511 1511 1511 1511 1511 1511 1511 1511 1511 1512 1513 1513 1513 1513 1513 1513 1514 1514 1514 1514 1514 1514 1515 1514 1515 1514 1514 1514 1514 1514 1514 1514 1513 1513